Flag for Netherlands Weather past 2 weeks in The Hague, Netherlands

Now
61 °F

Passing clouds.


Feels Like: 61 °F
Forecast: 50 / 57 °F
Wind: 15 mph from West

Location: Rotterdam Zestienhoven Airport

Current Time: May 28, 2015 at 4:52:03 PM

Latest Report: May 28, 2015 at 4:25 PM


Visibility: N/A

Pressure: 29.92 "Hg

Humidity: 52%

Dew point: 43 °F

Location of The HagueLocation

Historic Weather in The Hague — Graph

°F

The Hague temperature yesterday

Maximum temperature yesterday: 63 °F (at 12:25 PM)
Minimum temperature yesterday: 45 °F (at 2:55 AM)
Average temperature yesterday: 55 °F

Past Weeks' High & Low Weather Summary

 TemperatureHumidityPressure
High66 °F (May 22, 1:25 PM)100% (May 14, 2:25 AM)30.33 "Hg (May 14, 2:25 AM)
Low37 °F (May 24, 5:25 AM)37% (May 24, 4:25 PM)29.59 "Hg (May 18, 6:55 PM)
Average53 °F74%30.06 "Hg
* Reported May 13 3:25 PM — May 28 3:25 PM, The Hague, Weather by CustomWeather, © 2015

Note: Actual official high and low records may vary slightly from our data, if they occured in-between our weather recording intervals... More about our weather records

Advertising

The Hague weather history for previous 24 hours

 ConditionsComfort  
Time TempWeatherWind HumidityBarometerVisibility
3:25 PM
Thu, May 28
61 °FPartly sunny.16 mph59%29.92 "HgN/A
2:55 PM59 °FScattered clouds.17 mph55%29.92 "HgN/A
2:25 PM59 °FPartly sunny.15 mph68%29.92 "HgN/A
1:55 PM57 °FMostly cloudy.14 mph72%29.92 "HgN/A
1:25 PM57 °FPartly sunny.14 mph77%29.92 "HgN/A
12:55 PM59 °FScattered clouds.17 mph68%29.92 "HgN/A
12:25 PM59 °FScattered clouds.17 mph77%29.92 "HgN/A
11:55 AM57 °FBroken clouds.17 mph77%29.89 "HgN/A
11:25 AM57 °FOvercast.16 mph82%29.92 "HgN/A
10:55 AM55 °FCloudy.12 mph88%29.92 "HgN/A
10:25 AM55 °FOvercast.14 mph88%29.89 "HgN/A
9:55 AM55 °FOvercast.16 mph82%29.89 "HgN/A
9:25 AM57 °FBroken clouds.14 mph77%29.92 "HgN/A
8:55 AM55 °FBroken clouds.13 mph82%29.92 "HgN/A
8:25 AM55 °FOvercast.13 mph77%29.92 "HgN/A
7:55 AM55 °FMostly cloudy.17 mph77%29.89 "HgN/A
7:25 AM55 °FOvercast.13 mph82%29.89 "HgN/A
6:55 AM55 °FMostly cloudy.16 mph77%29.89 "HgN/A
6:25 AM55 °FPartly cloudy.14 mph82%29.89 "HgN/A
5:55 AM55 °FMostly cloudy.15 mph82%29.89 "HgN/A
5:25 AM57 °FPartly cloudy.17 mph77%29.89 "HgN/A
4:55 AM57 °FPartly cloudy.16 mph72%29.92 "HgN/A
4:25 AM57 °FPassing clouds.17 mph72%29.92 "HgN/A
3:55 AM57 °FClear.15 mph72%29.92 "HgN/A
3:25 AM57 °FPassing clouds.15 mph72%29.92 "HgN/A
2:55 AM57 °FClear.18 mph72%29.92 "HgN/A
2:25 AM57 °FClear.21 mph67%29.95 "HgN/A
1:55 AM57 °FClear.15 mph72%29.95 "HgN/A
1:25 AM57 °FClear.14 mph72%29.98 "HgN/A
12:55 AM57 °FClear.13 mph72%29.98 "HgN/A
12:25 AM57 °FClear.15 mph72%29.98 "HgN/A
11:55 PM
Wed, May 27
57 °FClear.10 mph72%30.01 "HgN/A
11:25 PM55 °FClear.10 mph77%30.01 "HgN/A
10:55 PM55 °FClear.12 mph72%30.04 "HgN/A
10:25 PM54 °FClear.6 mph72%30.04 "HgN/A
9:55 PM52 °FClear.6 mph82%30.07 "HgN/A
9:25 PM54 °FClear.5 mph72%30.07 "HgN/A
8:55 PM54 °FClear.8 mph72%30.07 "HgN/A
8:25 PM55 °FClear.7 mph72%30.09 "HgN/A
7:55 PM57 °FClear.9 mph67%30.09 "HgN/A
7:25 PM57 °FClear.8 mph72%30.09 "HgN/A
6:55 PM59 °FCool.8 mph68%30.12 "HgN/A
6:25 PM59 °FCool.7 mph68%30.12 "HgN/A
5:55 PM59 °FRefreshingly cool.10 mph59%30.12 "HgN/A
5:25 PM61 °FClear.10 mph59%30.15 "HgN/A
4:55 PM61 °FClear.10 mph59%30.15 "HgN/A
4:25 PM61 °FClear.10 mph63%30.15 "HgN/A
Weather by CustomWeather, © 2015

See weather overviewHow to use our weather pages